User: anonymous   Login
Location: *
(43.4667°N, 11.6833°E)
Time: 02:28:01
(UTC+00:00)
Language:

Cosmos 2266 Rocket - Orbit

View from above orbital plane
View from above orbital plane
View from above satellite
View from above satellite

Ground track
Ground track

The orbit data is extracted from the following two-line orbital elements,

1 22889U 93070B   19296.80506992  .00000049  00000-0  33932-4 0  9991
2 22889  82.9487  39.0378 0049427 344.7647  15.2019 13.77914694305872
Epoch (UTC): 23 October 2019 19:19:18
Eccentricity: 0.0049427
inclination: 82.9487°
perigee height: 935 km
apogee height: 1007 km
right ascension of ascending node: 39.0378°
argument of perigee: 344.7647°
revolutions per day: 13.77914694
mean anomaly at epoch: 15.2019°
orbit number at epoch: 30587

The dashed part of the orbit path shows where the satellite is in the earth's shadow,  

DLR